Flag for Canada Weather past 2 weeks in Yarmouth County, Nova Scotia, Canada

25 °F

Passing clouds.

Feels Like: 20 °F
Forecast: 25 / 36 °F
Wind: 3 mph from Northeast

Location: Yarmouth

Current Time: Nov 25, 2015 at 7:16:31 AM

Latest Report: Nov 25, 2015 at 6:00 AM

Visibility: 15 mi

Pressure: 30.61 "Hg

Humidity: 74%

Dew point: 18 °F

Location of Yarmouth CountyLocation

Historic Weather in Yarmouth County — Graph


Yarmouth County temperature yesterday

Maximum temperature yesterday: 32 °F (at 12:00 AM)
Minimum temperature yesterday: 28 °F (at 10:00 AM)
Average temperature yesterday: 30 °F

Past Weeks' High & Low Weather Summary

High59 °F (Nov 23, 4:50 AM)100% (Nov 10, 7:00 PM)30.61 "Hg (Nov 10, 7:00 PM)
Low25 °F (Nov 25, 3:00 AM)46% (Nov 16, 1:00 PM)29.33 "Hg (Nov 13, 8:00 AM)
Average43 °F82%30.03 "Hg
* Reported Nov 10 6:00 AM — Nov 25 6:00 AM, Yarmouth County, Weather by CustomWeather, © 2015

Note: Actual official high and low records may vary slightly from our data, if they occured in-between our weather recording intervals... More about our weather records


Yarmouth County weather history for previous 24 hours

Time TempWeatherWind HumidityBarometerVisibility
6:00 AM
Wed, Nov 25
25 °FPassing clouds.3 mph74%30.61 "Hg15 mi
5:00 AM25 °FPassing clouds.6 mph69%30.58 "Hg15 mi
4:00 AM25 °FPassing clouds.5 mph74%30.55 "Hg15 mi
3:00 AM25 °FPassing clouds.3 mph74%30.53 "Hg15 mi
2:00 AM27 °FPassing clouds.3 mph69%30.49 "Hg15 mi
1:00 AM28 °FPassing clouds.7 mph64%30.47 "Hg15 mi
12:00 AM30 °FPassing clouds.8 mph55%30.45 "Hg15 mi
11:00 PM
Tue, Nov 24
30 °FPassing clouds.9 mph64%30.43 "Hg15 mi
10:00 PM30 °FPassing clouds.12 mph64%30.41 "Hg15 mi
9:00 PM30 °FPassing clouds.15 mph64%30.38 "Hg15 mi
8:00 PM30 °FPassing clouds.17 mph69%30.35 "Hg15 mi
7:00 PM32 °FPassing clouds.18 mph60%30.32 "Hg15 mi
6:00 PM30 °FPassing clouds.14 mph64%30.28 "Hg15 mi
5:00 PM30 °FPassing clouds.16 mph59%30.25 "Hg15 mi
4:00 PM30 °FPartly sunny.12 mph64%30.22 "Hg15 mi
3:00 PM30 °FPartly sunny.16 mph59%30.20 "Hg14 mi
2:00 PM28 °FSnow flurries. Overcast.16 mph74%30.19 "Hg10 mi
1:00 PM28 °FSnow flurries. Partly sunny.18 mph69%30.17 "Hg10 mi
12:00 PM28 °FSnow flurries. Mostly cloudy.20 mph74%30.17 "Hg4 mi
11:00 AM28 °FSnow flurries. Broken clouds.17 mph80%30.17 "Hg4 mi
10:00 AM28 °FSnow flurries. Broken clouds.20 mph69%30.16 "Hg5 mi
9:00 AM30 °FSnow flurries. Partly sunny.16 mph59%30.13 "Hg15 mi
8:00 AM30 °FSnow flurries. Overcast.16 mph64%30.10 "Hg12 mi
7:00 AM30 °FOvercast.16 mph64%30.08 "Hg12 mi
Weather by CustomWeather, © 2015

See weather overviewHow to use our weather pages